SAS1HN YSSY-KLAX

Flight info

Callsign SAS1HN
Flight time N/A
Altitude 33000
Route DIPSO G595 SOTKI DCT LHI B450 DOLSI/N0494F350 B450 TUT DCT 05S163W/N0492F370 00N159W 05N155W 10N150W 17N140W/N0480F390 25N130W DCT FICKY GOATZ2
Aircraft A359/H-SDE2E3GHIJ3J4J5LM1ORWXY/LB1D1

Departure

Time 2026-04-30 18:18
Airport Sydney Kingsford Smith International Airport (YSSY)

Arrival

Time N/A
Airport Los Angeles International Airport (KLAX)
Time Latitude Longitude Altitude Speed Heading
2026-04-30 17:39 -33.93894 151.16858 27 ft 0 kts 70°
2026-04-30 18:08 -33.93901 151.16835 27 ft 3 kts 70°
2026-04-30 18:09 -33.93889 151.16757 26 ft 3 kts 178°
2026-04-30 18:10 -33.93883 151.16758 26 ft 0 kts 167°
2026-04-30 18:13 -33.93972 151.16785 27 ft 12 kts 165°
2026-04-30 18:13 -33.94027 151.16991 27 ft 15 kts 74°
2026-04-30 18:14 -33.93879 151.17200 25 ft 17 kts 349°
2026-04-30 18:15 -33.93559 151.17116 26 ft 15 kts 348°
2026-04-30 18:15 -33.93262 151.16973 27 ft 16 kts 329°
2026-04-30 18:16 -33.93042 151.16908 27 ft 17 kts 358°
2026-04-30 18:16 -33.92966 151.17133 29 ft 16 kts 107°
2026-04-30 18:17 -33.93057 151.17189 28 ft 17 kts 168°
2026-04-30 18:17 -33.93346 151.17264 29 ft 76 kts 167°
2026-04-30 18:17 -33.95176 151.17734 108 ft 179 kts 168°
2026-04-30 18:18 -33.96380 151.18034 819 ft 177 kts 168°
2026-04-30 18:18 -33.97610 151.18349 1336 ft 188 kts 168°
2026-04-30 18:18 -33.98891 151.18867 1469 ft 205 kts 147°
2026-04-30 18:18 -33.99988 151.20003 1763 ft 213 kts 133°
2026-04-30 18:19 -34.01012 151.21313 2224 ft 214 kts 132°
2026-04-30 18:19 -34.01864 151.22781 2658 ft 217 kts 114°
2026-04-30 18:19 -34.02233 151.24608 2805 ft 232 kts 93°
2026-04-30 18:19 -34.02214 151.26621 3014 ft 248 kts 83°
2026-04-30 18:20 -34.01974 151.28700 3407 ft 254 kts 78°
2026-04-30 18:20 -34.01632 151.30804 3957 ft 255 kts 77°
2026-04-30 18:20 -34.01270 151.32882 4507 ft 255 kts 77°
2026-04-30 18:20 -34.00917 151.34978 5027 ft 257 kts 77°
2026-04-30 18:21 -34.00580 151.37108 5540 ft 259 kts 78°
2026-04-30 18:21 -34.00263 151.39243 6066 ft 261 kts 79°
2026-04-30 18:21 -33.99952 151.41424 6611 ft 264 kts 79°
2026-04-30 18:21 -33.99651 151.43590 7130 ft 266 kts 79°
2026-04-30 18:22 -33.99345 151.45814 7638 ft 269 kts 79°
2026-04-30 18:22 -33.98724 151.50311 8669 ft 276 kts 79°
2026-04-30 18:22 -33.98404 151.52614 9169 ft 280 kts 79°
2026-04-30 18:23 -33.98075 151.54960 9646 ft 284 kts 79°
2026-04-30 18:23 -33.97748 151.57295 10195 ft 288 kts 79°
2026-04-30 18:23 -33.97408 151.59708 10548 ft 295 kts 79°
2026-04-30 18:23 -33.97030 151.62171 10757 ft 308 kts 74°
2026-04-30 18:24 -33.95717 151.67337 11148 ft 334 kts 70°
2026-04-30 18:24 -33.94963 151.70015 11356 ft 347 kts 70°
2026-04-30 18:24 -33.94146 151.72837 11553 ft 359 kts 70°
2026-04-30 18:25 -33.93311 151.75680 11760 ft 370 kts 70°
2026-04-30 18:25 -33.91568 151.81607 12523 ft 380 kts 70°
2026-04-30 18:25 -33.90683 151.84626 12927 ft 383 kts 70°
2026-04-30 18:26 -33.88903 151.90708 13757 ft 390 kts 70°
2026-04-30 18:26 -33.87997 151.93800 14199 ft 392 kts 70°
2026-04-30 18:26 -33.87081 151.96925 14528 ft 397 kts 70°
2026-04-30 18:27 -33.85245 152.03177 15397 ft 398 kts 70°
2026-04-30 18:27 -33.84315 152.06338 15783 ft 400 kts 71°
2026-04-30 18:28 -33.82442 152.12695 16589 ft 405 kts 71°
2026-04-30 18:28 -33.81505 152.15868 16997 ft 408 kts 71°
2026-04-30 18:28 -33.79592 152.22341 17828 ft 413 kts 71°
2026-04-30 18:29 -33.78623 152.25612 18237 ft 415 kts 71°
2026-04-30 18:29 -33.75689 152.35497 19400 ft 421 kts 71°
2026-04-30 18:30 -33.74052 152.40998 20033 ft 424 kts 70°
2026-04-30 18:30 -33.71724 152.48799 20937 ft 427 kts 71°
2026-04-30 18:31 -33.70719 152.52162 21343 ft 428 kts 70°
2026-04-30 18:31 -33.68694 152.58927 22060 ft 433 kts 71°
2026-04-30 18:32 -33.66653 152.65727 22865 ft 435 kts 71°
2026-04-30 18:32 -33.65622 152.69160 23267 ft 437 kts 71°
2026-04-30 18:32 -33.63553 152.76031 23987 ft 441 kts 71°
2026-04-30 18:33 -33.62506 152.79505 24319 ft 443 kts 70°
2026-04-30 18:33 -33.60399 152.86478 24912 ft 448 kts 71°
2026-04-30 18:33 -33.59329 152.90012 25255 ft 449 kts 71°
2026-04-30 18:34 -33.58265 152.93522 25561 ft 451 kts 71°
2026-04-30 18:34 -33.56115 153.00603 26172 ft 454 kts 71°
2026-04-30 18:34 -33.55022 153.04197 26461 ft 456 kts 71°
2026-04-30 18:35 -33.53943 153.07743 26749 ft 458 kts 71°
2026-04-30 18:35 -33.52843 153.11352 27040 ft 460 kts 71°
2026-04-30 18:35 -33.51739 153.14968 27338 ft 462 kts 71°
2026-04-30 18:36 -33.49521 153.22224 27894 ft 466 kts 71°
2026-04-30 18:36 -33.48396 153.25897 28187 ft 468 kts 71°
2026-04-30 18:36 -33.46153 153.33205 28770 ft 471 kts 71°
2026-04-30 18:37 -33.45012 153.36915 29086 ft 472 kts 71°
2026-04-30 18:37 -33.43873 153.40616 29321 ft 474 kts 71°
2026-04-30 18:37 -33.43116 153.43073 29501 ft 475 kts 71°
2026-04-30 18:37 -33.41589 153.48020 29797 ft 478 kts 72°
2026-04-30 18:38 -33.40433 153.51765 30035 ft 480 kts 72°
2026-04-30 18:38 -33.39662 153.54255 30197 ft 480 kts 72°
2026-04-30 18:38 -33.38116 153.59247 30483 ft 482 kts 72°
2026-04-30 18:38 -33.37325 153.61800 30626 ft 484 kts 72°
2026-04-30 18:39 -33.36148 153.65590 30795 ft 485 kts 72°
2026-04-30 18:39 -33.34986 153.69330 30965 ft 487 kts 72°
2026-04-30 18:39 -33.33800 153.73142 31142 ft 488 kts 71°
2026-04-30 18:39 -33.32607 153.76969 31382 ft 488 kts 72°
2026-04-30 18:40 -33.31429 153.80744 31618 ft 487 kts 72°
2026-04-30 18:40 -33.30243 153.84541 31862 ft 486 kts 71°
2026-04-30 18:40 -33.29065 153.88305 32077 ft 486 kts 71°
2026-04-30 18:40 -33.27879 153.92094 32285 ft 486 kts 71°
2026-04-30 18:41 -33.26687 153.95895 32501 ft 486 kts 71°
2026-04-30 18:41 -33.25511 153.99644 32706 ft 485 kts 71°
2026-04-30 18:41 -33.24323 154.03424 32892 ft 485 kts 71°
2026-04-30 18:41 -33.23134 154.07202 33088 ft 485 kts 71°
2026-04-30 18:42 -33.21941 154.10987 33254 ft 485 kts 71°
2026-04-30 18:42 -33.19567 154.18512 33405 ft 490 kts 71°
2026-04-30 18:42 -33.18357 154.22340 33405 ft 492 kts 71°
2026-04-30 18:45 -33.05015 154.64218 33403 ft 491 kts 71°
2026-04-30 18:46 -33.02578 154.71808 33401 ft 493 kts 71°
2026-04-30 18:46 -33.00115 154.79461 33401 ft 494 kts 71°
2026-04-30 18:47 -32.97658 154.87074 33404 ft 494 kts 71°
2026-04-30 18:47 -32.95195 154.94687 33403 ft 494 kts 71°
2026-04-30 18:48 -32.92713 155.02341 33405 ft 494 kts 71°
2026-04-30 18:48 -32.90233 155.09971 33406 ft 494 kts 71°
2026-04-30 18:49 -32.87758 155.17568 33400 ft 496 kts 71°
2026-04-30 18:49 -32.85252 155.25239 33401 ft 496 kts 71°
2026-04-30 18:50 -32.82752 155.32875 33401 ft 496 kts 71°
2026-04-30 18:50 -32.80251 155.40495 33401 ft 496 kts 71°
2026-04-30 18:51 -32.77740 155.48124 33398 ft 496 kts 71°
2026-04-30 18:51 -32.75223 155.55756 33399 ft 496 kts 71°
2026-04-30 18:52 -32.72686 155.63433 33400 ft 498 kts 71°
2026-04-30 18:52 -32.70148 155.71090 33397 ft 499 kts 70°
2026-04-30 18:53 -32.67613 155.78721 33395 ft 499 kts 70°
2026-04-30 18:53 -32.65062 155.86382 33395 ft 499 kts 70°
2026-04-30 18:54 -32.62509 155.94029 33401 ft 499 kts 70°
2026-04-30 18:54 -32.59931 156.01736 33391 ft 501 kts 70°
2026-04-30 18:55 -32.57359 156.09406 33392 ft 502 kts 70°
2026-04-30 18:55 -32.53479 156.20938 33387 ft 503 kts 70°
2026-04-30 18:56 -32.49582 156.32483 33384 ft 504 kts 70°
2026-04-30 18:57 -32.45666 156.44040 33384 ft 504 kts 70°
2026-04-30 18:57 -32.43039 156.51771 33385 ft 505 kts 70°
2026-04-30 18:58 -32.39096 156.63339 33384 ft 507 kts 70°
2026-04-30 18:59 -32.35133 156.74927 33381 ft 507 kts 70°
2026-04-30 19:00 -32.29826 156.90379 33388 ft 508 kts 69°
2026-04-30 19:01 -32.24488 157.05842 33375 ft 510 kts 69°
2026-04-30 19:02 -32.20460 157.17471 33373 ft 510 kts 70°
2026-04-30 19:03 -32.15066 157.32989 33375 ft 511 kts 69°
2026-04-30 19:04 -32.09640 157.48502 33372 ft 513 kts 69°
2026-04-30 19:05 -32.04165 157.64079 33367 ft 514 kts 69°
2026-04-30 19:06 -31.98694 157.79595 33365 ft 514 kts 68°
2026-04-30 19:06 -31.94555 157.91275 33366 ft 516 kts 68°
2026-04-30 19:07 -31.90400 158.02965 33362 ft 517 kts 68°
2026-04-30 19:08 -31.84836 158.18555 33357 ft 516 kts 68°
2026-04-30 19:09 -31.80680 158.30147 33945 ft 513 kts 68°
2026-04-30 19:09 -31.79280 158.34042 34142 ft 511 kts 68°
2026-04-30 19:09 -31.77905 158.37865 34274 ft 512 kts 67°
2026-04-30 19:10 -31.75111 158.45619 34506 ft 512 kts 67°
2026-04-30 19:10 -31.72340 158.53293 34711 ft 512 kts 67°
2026-04-30 19:11 -31.68150 158.64863 35088 ft 511 kts 66°
2026-04-30 19:12 -31.65353 158.72565 35157 ft 515 kts 66°
2026-04-30 19:12 -31.62551 158.80269 35327 ft 515 kts 66°
2026-04-30 19:13 -31.56874 158.95811 35343 ft 520 kts 66°
2026-04-30 19:14 -31.54028 159.03578 35350 ft 519 kts 66°
2026-04-30 19:14 -31.51171 159.11358 35349 ft 519 kts 66°
2026-04-30 19:15 -31.48313 159.19122 35346 ft 520 kts 66°
2026-04-30 19:15 -31.44003 159.30798 35348 ft 521 kts 66°
2026-04-30 19:16 -31.41125 159.38573 35341 ft 523 kts 66°
2026-04-30 19:17 -31.36778 159.50284 35344 ft 523 kts 65°
2026-04-30 19:17 -31.32414 159.62004 35340 ft 524 kts 65°
2026-04-30 19:18 -31.28047 159.73692 35342 ft 524 kts 65°
2026-04-30 19:19 -31.25117 159.81507 35331 ft 524 kts 65°
2026-04-30 19:19 -31.20720 159.93206 35333 ft 524 kts 65°
2026-04-30 19:20 -31.17786 160.00993 35329 ft 525 kts 65°
2026-04-30 19:21 -31.13372 160.12674 35328 ft 525 kts 65°
2026-04-30 19:22 -31.07450 160.28282 35327 ft 525 kts 65°
2026-04-30 19:23 -30.98551 160.51616 35326 ft 526 kts 64°
2026-04-30 19:24 -30.94077 160.63288 35319 ft 525 kts 64°
2026-04-30 19:25 -30.86613 160.82674 35322 ft 525 kts 64°
2026-04-30 19:26 -30.80618 160.98168 35317 ft 526 kts 64°
2026-04-30 19:27 -30.76100 161.09802 35315 ft 526 kts 64°
2026-04-30 19:28 -30.72066 161.20157 35315 ft 526 kts 64°
2026-04-30 19:29 -30.66017 161.35631 35312 ft 528 kts 64°
2026-04-30 19:30 -30.59925 161.51146 35308 ft 527 kts 64°
2026-04-30 19:31 -30.53825 161.66619 35308 ft 527 kts 64°
2026-04-30 19:31 -30.49235 161.78216 35285 ft 528 kts 64°
2026-04-30 19:32 -30.46178 161.85921 35302 ft 528 kts 63°
2026-04-30 19:32 -30.43105 161.93646 35296 ft 528 kts 64°
2026-04-30 19:33 -30.40032 162.01358 35302 ft 528 kts 64°
2026-04-30 19:33 -30.36950 162.09075 35292 ft 528 kts 63°
2026-04-30 19:34 -30.33845 162.16837 35295 ft 528 kts 63°
2026-04-30 19:35 -30.29200 162.28413 35271 ft 528 kts 63°
2026-04-30 19:35 -30.26111 162.36090 35286 ft 529 kts 63°
2026-04-30 19:36 -30.23015 162.43769 35285 ft 528 kts 63°
2026-04-30 19:36 -30.18341 162.55338 35285 ft 529 kts 63°
2026-04-30 19:37 -30.15230 162.63014 35286 ft 528 kts 63°
2026-04-30 19:37 -30.12115 162.70684 35279 ft 528 kts 63°
2026-04-30 19:38 -30.08977 162.78395 35260 ft 528 kts 63°
2026-04-30 19:38 -30.05850 162.86065 35275 ft 529 kts 63°
2026-04-30 19:39 -30.02717 162.93733 35274 ft 529 kts 63°
2026-04-30 19:39 -29.99586 163.01381 35273 ft 528 kts 63°
2026-04-30 19:40 -29.96444 163.09041 35268 ft 528 kts 63°
2026-04-30 19:40 -29.93306 163.16673 35268 ft 528 kts 63°
2026-04-30 19:41 -29.90149 163.24335 35270 ft 528 kts 63°
2026-04-30 19:41 -29.86994 163.31980 35261 ft 528 kts 63°
2026-04-30 19:42 -29.83848 163.39586 35265 ft 528 kts 63°
2026-04-30 19:42 -29.80670 163.47256 35265 ft 528 kts 62°
2026-04-30 19:43 -29.77499 163.54892 35266 ft 528 kts 62°
2026-04-30 19:44 -29.72738 163.66327 35269 ft 528 kts 62°
2026-04-30 19:44 -29.69566 163.73927 35263 ft 528 kts 62°
2026-04-30 19:45 -29.66391 163.81520 35262 ft 528 kts 62°
2026-04-30 19:45 -29.63191 163.89157 35263 ft 528 kts 62°
2026-04-30 19:46 -29.60007 163.96739 35257 ft 528 kts 62°
2026-04-30 19:46 -29.56816 164.04325 35257 ft 528 kts 62°
2026-04-30 19:47 -29.53626 164.11891 35250 ft 527 kts 62°
2026-04-30 19:47 -29.50425 164.19471 35249 ft 527 kts 62°
2026-04-30 19:48 -29.47231 164.27019 35249 ft 527 kts 62°
2026-04-30 19:48 -29.44018 164.34595 35239 ft 527 kts 62°
2026-04-30 19:49 -29.40816 164.42130 35244 ft 526 kts 62°
2026-04-30 19:49 -29.36004 164.53430 35236 ft 526 kts 62°
2026-04-30 19:50 -29.32776 164.60990 35238 ft 526 kts 62°
2026-04-30 19:50 -29.29550 164.68530 35238 ft 526 kts 62°
2026-04-30 19:51 -29.26347 164.76004 35232 ft 525 kts 62°
2026-04-30 19:51 -29.23122 164.83514 35225 ft 524 kts 62°
2026-04-30 19:52 -29.19902 164.90996 35233 ft 525 kts 62°
2026-04-30 19:52 -29.16679 164.98472 35228 ft 525 kts 62°
2026-04-30 19:53 -29.13438 165.05977 35229 ft 524 kts 61°
2026-04-30 19:53 -29.10211 165.13433 35222 ft 525 kts 61°
2026-04-30 19:54 -29.06955 165.20942 35222 ft 525 kts 61°
2026-04-30 19:54 -29.03718 165.28395 35222 ft 525 kts 61°
2026-04-30 19:55 -29.00474 165.35847 35210 ft 524 kts 62°
2026-04-30 19:55 -28.97228 165.43292 35208 ft 523 kts 62°
2026-04-30 19:56 -28.93976 165.50736 35222 ft 523 kts 62°
2026-04-30 19:56 -28.90738 165.58132 35213 ft 523 kts 61°
2026-04-30 19:57 -28.87466 165.65592 35222 ft 523 kts 61°
2026-04-30 19:57 -28.84224 165.72973 35210 ft 523 kts 61°
2026-04-30 19:58 -28.80952 165.80407 35208 ft 523 kts 61°
2026-04-30 19:58 -28.77687 165.87808 35215 ft 524 kts 62°
2026-04-30 19:59 -28.74402 165.95242 35215 ft 526 kts 62°
2026-04-30 20:00 -28.69451 166.06423 35206 ft 527 kts 62°
2026-04-30 20:00 -28.66157 166.13843 35205 ft 527 kts 61°
2026-04-30 20:01 -28.61182 166.25026 35204 ft 528 kts 61°
2026-04-30 20:01 -28.57865 166.32463 35205 ft 528 kts 61°
2026-04-30 20:02 -28.52867 166.43644 35196 ft 531 kts 61°
2026-04-30 20:03 -28.47804 166.54937 35195 ft 533 kts 61°
2026-04-30 20:03 -28.44449 166.62408 35196 ft 531 kts 61°
2026-04-30 20:04 -28.41096 166.69857 35194 ft 531 kts 61°
2026-04-30 20:05 -28.36043 166.81057 35189 ft 531 kts 61°
2026-04-30 20:05 -28.30988 166.92231 35184 ft 530 kts 61°
2026-04-30 20:06 -28.27629 166.99640 35195 ft 529 kts 61°
2026-04-30 20:06 -28.24255 167.07065 35188 ft 529 kts 61°
2026-04-30 20:07 -28.20891 167.14458 35189 ft 529 kts 61°
2026-04-30 20:08 -28.15824 167.25567 35186 ft 528 kts 60°
2026-04-30 20:08 -28.12444 167.32961 35186 ft 526 kts 60°
2026-04-30 20:09 -28.09088 167.40289 35192 ft 526 kts 60°
2026-04-30 20:09 -28.04013 167.51345 35184 ft 527 kts 60°
2026-04-30 20:10 -27.98927 167.62395 35193 ft 526 kts 60°
2026-04-30 20:11 -27.93876 167.73345 35188 ft 522 kts 60°
2026-04-30 20:11 -27.90514 167.80613 35186 ft 522 kts 60°
2026-04-30 20:12 -27.85462 167.91509 35187 ft 522 kts 60°
2026-04-30 20:13 -27.82096 167.98754 35190 ft 523 kts 60°
2026-04-30 20:13 -27.79275 168.04815 35192 ft 523 kts 60°
2026-04-30 20:14 -27.75876 168.12114 35191 ft 523 kts 60°
2026-04-30 20:14 -27.72495 168.19357 35194 ft 523 kts 60°
2026-04-30 20:15 -27.69110 168.26595 35200 ft 523 kts 60°
2026-04-30 20:15 -27.65705 168.33863 35199 ft 523 kts 59°
2026-04-30 20:16 -27.62314 168.41090 35195 ft 522 kts 59°
2026-04-30 20:16 -27.58910 168.48334 35190 ft 522 kts 59°
2026-04-30 20:17 -27.55513 168.55546 35196 ft 525 kts 59°
2026-04-30 20:17 -27.52084 168.62814 35197 ft 526 kts 59°
2026-04-30 20:18 -27.48639 168.70106 35202 ft 526 kts 59°
2026-04-30 20:18 -27.45190 168.77394 35197 ft 527 kts 59°
2026-04-30 20:19 -27.41745 168.84659 35198 ft 527 kts 59°
2026-04-30 20:19 -27.38287 168.91940 35191 ft 527 kts 59°
2026-04-30 20:20 -27.34833 168.99201 35196 ft 527 kts 59°
2026-04-30 20:20 -27.31390 169.06425 35194 ft 527 kts 59°
2026-04-30 20:21 -27.27904 169.13728 35192 ft 527 kts 59°
2026-04-30 20:21 -27.24449 169.20952 35192 ft 527 kts 59°
2026-04-30 20:22 -27.20964 169.28227 35197 ft 527 kts 59°
2026-04-30 20:22 -27.17494 169.35459 35191 ft 527 kts 59°
2026-04-30 20:23 -27.14017 169.42693 35201 ft 527 kts 59°
2026-04-30 20:23 -27.10537 169.49923 35194 ft 527 kts 59°
2026-04-30 20:24 -27.07028 169.57197 35186 ft 528 kts 58°
2026-04-30 20:24 -27.03523 169.64451 35193 ft 532 kts 58°
2026-04-30 20:25 -26.98222 169.75401 35194 ft 532 kts 58°
2026-04-30 20:26 -26.92915 169.86338 35196 ft 533 kts 58°
2026-04-30 20:26 -26.87614 169.97233 35198 ft 533 kts 58°
2026-04-30 20:27 -26.80486 170.11839 35195 ft 534 kts 58°
2026-04-30 20:28 -26.73309 170.26496 35194 ft 538 kts 58°
2026-04-30 20:30 -26.64320 170.44788 35188 ft 537 kts 58°
2026-04-30 20:31 -26.53485 170.66731 35191 ft 538 kts 57°
2026-04-30 20:32 -26.44351 170.85146 35189 ft 543 kts 57°
2026-04-30 20:33 -26.38861 170.96178 35190 ft 543 kts 57°
2026-04-30 20:34 -26.33355 171.07213 35188 ft 542 kts 57°
2026-04-30 20:35 -26.27853 171.18213 35179 ft 543 kts 57°
2026-04-30 20:35 -26.22305 171.29277 35187 ft 545 kts 57°
2026-04-30 20:36 -26.18623 171.36608 35178 ft 545 kts 57°
2026-04-30 20:37 -26.13061 171.47656 35193 ft 544 kts 57°
2026-04-30 20:37 -26.09367 171.54977 35194 ft 544 kts 57°
2026-04-30 20:38 -26.05659 171.62315 35189 ft 544 kts 57°
2026-04-30 20:38 -26.01941 171.69662 35167 ft 544 kts 56°
2026-04-30 20:39 -25.96355 171.80675 35189 ft 545 kts 56°
2026-04-30 20:40 -25.90769 171.91662 35186 ft 545 kts 56°
2026-04-30 20:40 -25.87054 171.98955 35186 ft 545 kts 56°
2026-04-30 20:41 -25.81426 172.09979 35189 ft 545 kts 56°
2026-04-30 20:41 -25.77701 172.17262 35181 ft 545 kts 56°
2026-04-30 20:42 -25.73941 172.24600 35155 ft 545 kts 56°
2026-04-30 20:43 -25.68322 172.35544 35176 ft 547 kts 56°
2026-04-30 20:43 -25.64547 172.42884 35190 ft 547 kts 56°
2026-04-30 20:44 -25.58886 172.53868 35184 ft 547 kts 56°
2026-04-30 20:45 -25.51340 172.68469 35184 ft 547 kts 56°
2026-04-30 20:45 -25.47539 172.75805 35181 ft 547 kts 56°
2026-04-30 20:46 -25.39962 172.90393 35184 ft 550 kts 56°
2026-04-30 20:47 -25.34227 173.01406 35176 ft 550 kts 55°
2026-04-30 20:48 -25.28513 173.12353 35178 ft 550 kts 55°
2026-04-30 20:48 -25.24679 173.19685 35182 ft 550 kts 55°
2026-04-30 20:49 -25.20868 173.26958 35178 ft 550 kts 55°
2026-04-30 20:50 -25.15099 173.37950 35182 ft 552 kts 55°
2026-04-30 20:50 -25.11248 173.45271 35172 ft 553 kts 55°
2026-04-30 20:51 -25.07397 173.52584 35179 ft 553 kts 55°
2026-04-30 20:51 -25.01587 173.63594 35179 ft 552 kts 55°
2026-04-30 20:52 -24.97714 173.70918 35176 ft 552 kts 55°
2026-04-30 20:53 -24.91924 173.81847 35176 ft 552 kts 55°
2026-04-30 20:53 -24.88046 173.89153 35151 ft 553 kts 54°
2026-04-30 20:54 -24.82203 174.00136 35170 ft 555 kts 54°
2026-04-30 20:55 -24.76336 174.11144 35170 ft 555 kts 54°
2026-04-30 20:55 -24.72434 174.18450 35170 ft 555 kts 54°
2026-04-30 20:56 -24.66554 174.29438 35168 ft 555 kts 54°
2026-04-30 20:57 -24.60688 174.40375 35170 ft 554 kts 54°
2026-04-30 20:57 -24.56782 174.47642 35170 ft 554 kts 54°
2026-04-30 20:58 -24.50888 174.58590 35167 ft 554 kts 54°
2026-04-30 20:58 -24.46963 174.65865 35167 ft 554 kts 54°
2026-04-30 20:59 -24.41071 174.76767 35166 ft 554 kts 54°
2026-04-30 21:00 -24.33199 174.91294 35167 ft 554 kts 54°
2026-04-30 21:01 -24.27284 175.02181 35162 ft 556 kts 54°
2026-04-30 21:02 -24.21344 175.13088 35162 ft 557 kts 54°
2026-04-30 21:02 -24.17377 175.20361 35157 ft 557 kts 54°
2026-04-30 21:03 -24.14066 175.26423 35157 ft 557 kts 53°
2026-04-30 21:03 -24.10083 175.33705 35157 ft 557 kts 53°
2026-04-30 21:04 -24.06113 175.40951 35157 ft 557 kts 53°
2026-04-30 21:04 -24.00121 175.51868 35131 ft 556 kts 53°
2026-04-30 21:05 -23.96143 175.59100 35160 ft 558 kts 53°
2026-04-30 21:05 -23.92140 175.66367 35153 ft 559 kts 53°
2026-04-30 21:06 -23.88115 175.73668 35153 ft 559 kts 53°
2026-04-30 21:06 -23.84096 175.80947 35151 ft 559 kts 53°
2026-04-30 21:07 -23.80079 175.88208 35153 ft 559 kts 53°
2026-04-30 21:07 -23.76071 175.95444 35153 ft 559 kts 53°
2026-04-30 21:08 -23.72052 176.02688 35153 ft 559 kts 53°
2026-04-30 21:08 -23.68019 176.09948 35144 ft 559 kts 53°
2026-04-30 21:09 -23.63982 176.17201 35151 ft 561 kts 53°
2026-04-30 21:09 -23.59938 176.24460 35146 ft 561 kts 53°
2026-04-30 21:10 -23.55877 176.31740 35150 ft 561 kts 53°
2026-04-30 21:10 -23.51837 176.38970 35148 ft 561 kts 53°
2026-04-30 21:11 -23.47766 176.46246 35151 ft 561 kts 53°
2026-04-30 21:11 -23.43698 176.53505 35144 ft 561 kts 53°
2026-04-30 21:12 -23.39646 176.60725 35141 ft 561 kts 53°
2026-04-30 21:12 -23.35580 176.67959 35138 ft 562 kts 53°
2026-04-30 21:13 -23.31482 176.75239 35138 ft 562 kts 53°
2026-04-30 21:13 -23.27413 176.82460 35139 ft 562 kts 53°
2026-04-30 21:14 -23.23313 176.89725 35152 ft 562 kts 53°
2026-04-30 21:14 -23.19208 176.96988 35132 ft 562 kts 53°
2026-04-30 21:15 -23.15130 177.04191 35138 ft 562 kts 53°
2026-04-30 21:15 -23.11027 177.11430 35138 ft 562 kts 53°
2026-04-30 21:16 -23.06941 177.18628 35119 ft 562 kts 53°
2026-04-30 21:16 -23.02806 177.25900 35134 ft 564 kts 53°
2026-04-30 21:17 -22.98681 177.33146 35132 ft 564 kts 53°
2026-04-30 21:17 -22.94570 177.40361 35133 ft 563 kts 53°
2026-04-30 21:18 -22.90459 177.47562 35127 ft 563 kts 53°
2026-04-30 21:18 -22.86320 177.54803 35125 ft 563 kts 53°
2026-04-30 21:19 -22.82209 177.61984 35126 ft 563 kts 53°
2026-04-30 21:19 -22.78070 177.69203 35124 ft 563 kts 53°
2026-04-30 21:20 -22.73947 177.76386 35119 ft 563 kts 53°
2026-04-30 21:20 -22.69784 177.83629 35122 ft 564 kts 53°
2026-04-30 21:21 -22.65635 177.90836 35122 ft 564 kts 53°
2026-04-30 21:22 -22.59413 178.01627 35119 ft 564 kts 53°
2026-04-30 21:23 -22.51119 178.15977 35116 ft 564 kts 53°
2026-04-30 21:23 -22.44856 178.26788 35117 ft 564 kts 53°
2026-04-30 21:24 -22.40708 178.33932 35118 ft 565 kts 53°
2026-04-30 21:24 -22.36508 178.41159 35115 ft 566 kts 53°
2026-04-30 21:25 -22.30223 178.51957 35114 ft 566 kts 53°
2026-04-30 21:26 -22.23936 178.62735 35110 ft 566 kts 53°
2026-04-30 21:27 -22.17631 178.73522 35107 ft 566 kts 53°
2026-04-30 21:27 -22.13422 178.80709 35109 ft 566 kts 53°
2026-04-30 21:28 -22.07113 178.91464 35111 ft 568 kts 53°
2026-04-30 21:29 -22.00772 179.02255 35102 ft 568 kts 53°
2026-04-30 21:30 -21.90200 179.20197 35103 ft 568 kts 53°
2026-04-30 21:31 -21.79609 179.38111 35093 ft 567 kts 53°
2026-04-30 21:32 -21.73224 179.48881 35094 ft 570 kts 53°
2026-04-30 21:32 -21.68977 179.56035 35097 ft 570 kts 53°
2026-04-30 21:33 -21.62563 179.66820 35095 ft 570 kts 53°
2026-04-30 21:34 -21.58295 179.73985 35091 ft 570 kts 53°
2026-04-30 21:34 -21.51879 179.84739 35096 ft 570 kts 53°
2026-04-30 21:35 -21.47583 179.91927 35098 ft 570 kts 52°
2026-04-30 21:35 -21.43300 179.99085 35098 ft 570 kts 52°
2026-04-30 21:36 -21.38780 -179.93947 35087 ft 567 kts 47°
2026-04-30 21:37 -21.28979 -179.80758 35085 ft 566 kts 46°
2026-04-30 21:37 -21.24109 -179.74058 35084 ft 567 kts 47°
2026-04-30 21:38 -21.19317 -179.67398 35086 ft 567 kts 47°
2026-04-30 21:38 -21.14504 -179.60709 35087 ft 567 kts 47°
2026-04-30 21:39 -21.09692 -179.54036 35074 ft 567 kts 47°
2026-04-30 21:39 -21.04842 -179.47322 35075 ft 567 kts 47°
2026-04-30 21:40 -21.00019 -179.40656 35072 ft 568 kts 47°
2026-04-30 21:40 -20.95191 -179.33991 35072 ft 568 kts 47°
2026-04-30 21:41 -20.90366 -179.27338 35072 ft 567 kts 47°
2026-04-30 21:41 -20.85512 -179.20653 35069 ft 567 kts 47°
2026-04-30 21:42 -20.80679 -179.14003 35067 ft 567 kts 47°
2026-04-30 21:42 -20.75853 -179.07371 35066 ft 566 kts 46°
2026-04-30 21:43 -20.71821 -179.01836 35067 ft 566 kts 46°
2026-04-30 21:43 -20.66179 -178.94102 35068 ft 565 kts 46°
2026-04-30 21:44 -20.61344 -178.87481 35061 ft 565 kts 46°
2026-04-30 21:44 -20.56514 -178.80876 35061 ft 566 kts 46°
2026-04-30 21:45 -20.51685 -178.74278 35058 ft 566 kts 46°
2026-04-30 21:45 -20.46840 -178.67667 35059 ft 566 kts 46°
2026-04-30 21:46 -20.41978 -178.61037 35053 ft 564 kts 46°
2026-04-30 21:46 -20.37150 -178.54464 35053 ft 563 kts 46°
2026-04-30 21:47 -20.32327 -178.47906 35050 ft 563 kts 46°
2026-04-30 21:47 -20.27504 -178.41355 35051 ft 563 kts 46°
2026-04-30 21:48 -20.22668 -178.34793 35048 ft 563 kts 46°
2026-04-30 21:48 -20.17811 -178.28210 35048 ft 563 kts 46°
2026-04-30 21:49 -20.12983 -178.21674 35048 ft 563 kts 46°
2026-04-30 21:49 -20.08157 -178.15146 35048 ft 562 kts 46°
2026-04-30 21:50 -20.03318 -178.08609 35041 ft 561 kts 46°
2026-04-30 21:50 -19.99316 -178.03210 35039 ft 560 kts 46°
2026-04-30 21:51 -19.94486 -177.96699 35040 ft 560 kts 46°
2026-04-30 21:51 -19.89671 -177.90216 35037 ft 560 kts 46°
2026-04-30 21:52 -19.84822 -177.83694 35034 ft 560 kts 46°
2026-04-30 21:52 -19.79998 -177.77211 35034 ft 560 kts 46°
2026-04-30 21:53 -19.75176 -177.70740 35033 ft 558 kts 47°
2026-04-30 21:53 -19.70385 -177.64314 35031 ft 556 kts 46°
2026-04-30 21:54 -19.65585 -177.57886 35022 ft 556 kts 46°
2026-04-30 21:54 -19.60763 -177.51436 35019 ft 556 kts 46°
2026-04-30 21:55 -19.55970 -177.45032 35016 ft 556 kts 46°
2026-04-30 21:55 -19.51150 -177.38596 35022 ft 556 kts 47°
2026-04-30 21:56 -19.46421 -177.32146 35026 ft 557 kts 47°
2026-04-30 21:56 -19.41697 -177.25635 35013 ft 555 kts 47°
2026-04-30 21:57 -19.37004 -177.19190 35014 ft 553 kts 47°
2026-04-30 21:57 -19.32287 -177.12742 35012 ft 553 kts 47°
2026-04-30 21:58 -19.27587 -177.06332 35008 ft 553 kts 47°
2026-04-30 21:58 -19.22851 -176.99878 35003 ft 553 kts 47°
2026-04-30 21:59 -19.18138 -176.93461 35004 ft 553 kts 47°
2026-04-30 22:00 -19.11057 -176.83833 35007 ft 552 kts 47°
2026-04-30 22:00 -19.04006 -176.74257 35004 ft 550 kts 47°
2026-04-30 22:01 -18.99311 -176.67890 35002 ft 550 kts 47°
2026-04-30 22:01 -18.94592 -176.61500 34996 ft 550 kts 47°
2026-04-30 22:02 -18.89898 -176.55149 34999 ft 550 kts 48°
2026-04-30 22:02 -18.85202 -176.48802 34994 ft 550 kts 48°
2026-04-30 22:03 -18.80467 -176.42408 34992 ft 550 kts 48°
2026-04-30 22:03 -18.75763 -176.36060 34995 ft 550 kts 48°
2026-04-30 22:04 -18.71054 -176.29714 34992 ft 551 kts 48°
2026-04-30 22:05 -18.63956 -176.20160 34985 ft 551 kts 48°
2026-04-30 22:05 -18.59223 -176.13798 34989 ft 551 kts 48°
2026-04-30 22:06 -18.54496 -176.07450 34988 ft 552 kts 48°
2026-04-30 22:06 -18.47389 -175.97918 34991 ft 552 kts 48°
2026-04-30 22:07 -18.42631 -175.91543 34990 ft 552 kts 47°
2026-04-30 22:07 -18.37892 -175.85202 34976 ft 551 kts 48°
2026-04-30 22:08 -18.33162 -175.78878 34981 ft 550 kts 48°
2026-04-30 22:08 -18.28437 -175.72566 34982 ft 550 kts 48°
2026-04-30 22:09 -18.23690 -175.66233 34986 ft 550 kts 48°
2026-04-30 22:09 -18.18956 -175.59924 34981 ft 550 kts 48°
2026-04-30 22:10 -18.14205 -175.53596 34984 ft 550 kts 48°
2026-04-30 22:10 -18.09481 -175.47312 34984 ft 550 kts 48°
2026-04-30 22:11 -18.02365 -175.37856 34982 ft 550 kts 48°
2026-04-30 22:12 -17.97597 -175.31528 34982 ft 549 kts 48°
2026-04-30 22:12 -17.92858 -175.25245 34977 ft 549 kts 48°
2026-04-30 22:13 -17.88107 -175.18952 34977 ft 549 kts 48°
2026-04-30 22:13 -17.83378 -175.12694 34976 ft 549 kts 48°
2026-04-30 22:14 -17.78633 -175.06421 34976 ft 549 kts 48°
2026-04-30 22:14 -17.73855 -175.00112 34977 ft 550 kts 48°
2026-04-30 22:15 -17.69092 -174.93900 34976 ft 550 kts 47°
2026-04-30 22:15 -17.64243 -174.87656 34975 ft 550 kts 47°
2026-04-30 22:16 -17.59427 -174.81456 34975 ft 550 kts 47°
2026-04-30 22:17 -17.49794 -174.69038 34973 ft 550 kts 47°
2026-04-30 22:17 -17.42560 -174.59724 34974 ft 549 kts 47°
2026-04-30 22:18 -17.35320 -174.50415 34975 ft 549 kts 47°
2026-04-30 22:19 -17.28096 -174.41139 34986 ft 547 kts 48°
2026-04-30 22:20 -17.20882 -174.31889 34970 ft 546 kts 48°
2026-04-30 22:20 -17.13667 -174.22652 34971 ft 545 kts 48°
2026-04-30 22:21 -17.08884 -174.16535 34968 ft 544 kts 48°
2026-04-30 22:21 -17.04079 -174.10395 34969 ft 544 kts 48°
2026-04-30 22:22 -16.99289 -174.04280 34969 ft 544 kts 48°
2026-04-30 22:22 -16.94507 -173.98181 34954 ft 544 kts 48°
2026-04-30 22:23 -16.89717 -173.92075 34973 ft 541 kts 48°
2026-04-30 22:23 -16.84971 -173.86032 34957 ft 540 kts 48°
2026-04-30 22:24 -16.80191 -173.79951 34974 ft 540 kts 48°
2026-04-30 22:24 -16.75435 -173.73907 34955 ft 540 kts 48°
2026-04-30 22:25 -16.70683 -173.67871 34956 ft 540 kts 48°
2026-04-30 22:25 -16.65919 -173.61827 34969 ft 540 kts 48°
2026-04-30 22:26 -16.58768 -173.52763 34963 ft 540 kts 49°
2026-04-30 22:27 -16.53974 -173.46694 34961 ft 540 kts 49°
2026-04-30 22:27 -16.46793 -173.37611 34961 ft 540 kts 48°
2026-04-30 22:28 -16.39617 -173.28547 34958 ft 540 kts 48°
2026-04-30 22:29 -16.30059 -173.16492 34958 ft 540 kts 48°
2026-04-30 22:31 -16.13322 -172.95432 34957 ft 540 kts 49°
2026-04-30 22:32 -16.01352 -172.80407 34952 ft 540 kts 48°
2026-04-30 22:33 -15.89340 -172.65363 34952 ft 540 kts 49°
2026-04-30 22:35 -15.77380 -172.50364 34949 ft 540 kts 49°
2026-04-30 22:36 -15.65395 -172.35371 34951 ft 538 kts 49°
2026-04-30 22:37 -15.56652 -172.24453 34945 ft 538 kts 49°
2026-04-30 22:38 -15.47078 -172.12517 34945 ft 537 kts 49°
2026-04-30 22:39 -15.39935 -172.03624 34950 ft 537 kts 49°
2026-04-30 22:40 -15.25579 -171.85780 34945 ft 537 kts 49°
2026-04-30 22:41 -15.13612 -171.70940 34947 ft 537 kts 49°
2026-04-30 22:43 -14.99308 -171.53237 34945 ft 535 kts 49°
2026-04-30 22:44 -14.89748 -171.41429 34942 ft 535 kts 49°
2026-04-30 22:45 -14.75416 -171.23760 34934 ft 535 kts 49°
2026-04-30 22:47 -14.61116 -171.06170 34940 ft 533 kts 49°
2026-04-30 22:48 -14.51588 -170.94472 34942 ft 533 kts 49°
2026-04-30 22:49 -14.37287 -170.76945 34951 ft 533 kts 49°
2026-04-30 22:51 -14.21018 -170.61387 34946 ft 532 kts 38°
2026-04-30 22:52 -14.12514 -170.54100 34940 ft 532 kts 38°
2026-04-30 22:53 -14.01151 -170.44323 34933 ft 532 kts 39°
2026-04-30 22:53 -13.92642 -170.37004 34937 ft 531 kts 39°
2026-04-30 22:55 -13.78433 -170.24802 34931 ft 531 kts 39°
2026-04-30 22:56 -13.67113 -170.15095 34936 ft 531 kts 39°
2026-04-30 22:57 -13.52920 -170.02942 34934 ft 531 kts 39°
2026-04-30 22:58 -13.41576 -169.93243 34936 ft 531 kts 39°
2026-04-30 22:59 -13.24541 -169.78702 34933 ft 530 kts 39°